Phoenix, AZ

4:36 PM MST on February 05, 2016 (GMT -0700)
Phoenix-Deer Valley Municipal

Weather History for KDVT - May, 2013

Change the Weather History Date:

Thursday, May 9, 2013

  Actual Average Record
Temperature  
Mean Temperature 71 °F -  
Max Temperature 82 °F 87 °F 104 °F (2001)
Min Temperature 60 °F 63 °F 50 °F (2015)
Cooling Degree Days 6    
Growing Degree Days 21 (Base 50)    
Moisture  
Dew Point 34 °F    
Average Humidity 25    
Maximum Humidity 35    
Minimum Humidity 16    
Precipitation  
Precipitation 0.00 in - - ()
Sea Level Pressure  
Sea Level Pressure 29.88 in    
Wind  
Wind Speed 3 mph (SSW)    
Max Wind Speed 9 mph    
Max Gust Speed -    
Visibility 10 miles    
Events      
Averages and records for this station are not official NWS values.
T = Trace of Precipitation, MM = Missing Value Source: NWS Daily Summary

Daily Weather History Graph

Daily Weather History Graph

Search for Another Location

Airport or City:

Trip Planner

Search our weather history database for the weather conditions in past years. The results will help you decide how hot, cold, wet, or windy it might be!

Date:

Astronomy

May. 09, 2013 Rise Set
Actual Time 5:31 AM MST 7:17 PM MST
Civil Twilight 5:04 AM MST 7:45 PM MST
Nautical Twilight 4:32 AM MST 8:17 PM MST
Astronomical Twilight 3:57 AM MST 8:52 PM MST
Moon 5:17 AM MST (5/9) 7:16 PM MST (5/9)
Length of Visible Light 14h 40m
Length of Day
13h 46m
Waning Crescent, 0% of the Moon is Illuminated
May 9
Waning Crescent
May 9
New
May 17
First Quarter
May 24
Full
May 31
Last Quarter

Hourly Weather History & Observations

Time (MST) Temp. Dew Point Humidity Pressure Visibility Wind Dir Wind Speed Gust Speed Precip Events Conditions
12:53 AM 64.0 °F 30.9 °F 29% 29.90 in 10.0 mi Calm Calm - N/A   Clear
1:53 AM 64.9 °F 34.0 °F 32% 29.89 in 10.0 mi NE 3.5 mph - N/A   Clear
2:53 AM 62.1 °F 32.0 °F 32% 29.89 in 10.0 mi Calm Calm - N/A   Clear
3:53 AM 61.0 °F 32.0 °F 34% 29.89 in 10.0 mi ESE 4.6 mph - N/A   Clear
4:53 AM 60.1 °F 32.0 °F 35% 29.90 in 10.0 mi Calm Calm - N/A   Clear
5:53 AM 61.0 °F 32.0 °F 34% 29.91 in 10.0 mi Calm Calm - N/A   Mostly Cloudy
6:53 AM 66.0 °F 35.1 °F 32% 29.92 in 10.0 mi Calm Calm - N/A   Clear
7:53 AM 66.9 °F 35.1 °F 31% 29.93 in 10.0 mi South 3.5 mph - N/A   Clear
8:53 AM 70.0 °F 37.9 °F 31% 29.93 in 10.0 mi SSE 4.6 mph - N/A   Clear
9:53 AM 73.0 °F 36.0 °F 26% 29.93 in 10.0 mi SSE 3.5 mph - N/A   Clear
10:53 AM 75.9 °F 36.0 °F 23% 29.93 in 10.0 mi SSW 5.8 mph - N/A   Clear
11:53 AM 78.1 °F 37.0 °F 23% 29.91 in 10.0 mi Variable 4.6 mph - N/A   Clear
12:53 PM 81.0 °F 36.0 °F 20% 29.89 in 10.0 mi South 9.2 mph - N/A   Clear
1:53 PM 81.0 °F 35.1 °F 19% 29.87 in 10.0 mi Calm Calm - N/A   Clear
2:53 PM 82.0 °F 34.0 °F 18% 29.85 in 10.0 mi WSW 8.1 mph - N/A   Clear
3:53 PM 82.0 °F 33.1 °F 17% 29.83 in 10.0 mi Calm Calm - N/A   Clear
4:53 PM 82.9 °F 32.0 °F 16% 29.82 in 10.0 mi SW 8.1 mph - N/A   Clear
5:53 PM 82.0 °F 34.0 °F 18% 29.82 in 10.0 mi WSW 9.2 mph - N/A   Clear
6:53 PM 80.1 °F 33.1 °F 18% 29.82 in 10.0 mi SW 9.2 mph - N/A   Clear
7:53 PM 79.0 °F 34.0 °F 20% 29.84 in 10.0 mi SW 8.1 mph - N/A   Clear
8:53 PM 77.0 °F 36.0 °F 23% 29.86 in 10.0 mi Calm Calm - N/A   Clear
10:53 PM 73.9 °F 36.0 °F 25% 29.88 in 10.0 mi North 3.5 mph - N/A   Partly Cloudy
11:53 PM 72.0 °F 35.1 °F 26% 29.88 in 10.0 mi North 4.6 mph - N/A   Clear